Погода в Гагарине

Погода в Гагарине : погода сейчас, прогноз погоды и архив. Всё, что Вы хотите узнать о погоде в Гагарине!

Хотите узнать прогноз погоды в Гагарине? Тогда Вам сюда: Погода в Гагарине

Поиск расширенной информации на нашем сайте:

Другие новости

Новости СМИ2

Главная страница сайта

Новости сайта

03.07.2017

Напоминаем, что на нашем специализированном сайте Метеоцентр.Азия вы можете получить высокодетализированные автоматические прогнозы погоды по пунктам России, СНГ и мира в авиационном формате (включающие направление и скорость ветра, видимость, явления погоды, количество и форму облачности, нижнюю и верхнюю границу облачности).


Погода в Гагарине - сегодня

Время (UTC), дата Ветер
(°,м/с) 
Видим.   Явления Облачность Т
(°С)
Тd
(°С)
f(%) Тe
(°С)
Pmin
(гПа)
dP
(гПа)
Po
(мм)
O2
(г/м3)
Тmin Tmax R s Состояние
почвы
12 20.10.17 290 (З) 12000 м    10/3 600 м кучево-дожд., средняя 
[Cb calv|Ac trans]
+7.3 -0.1 59 +7  1022.2  -0.6  749  294           
15 20.10.17 300 (СЗ) 12000 м    9/6 1080 м кучево-дожд., средняя 
[Cb cap|Ac trans]
+5.2 +0.8 73 +6  1022.1  -0.2  749  296           
18 20.10.17 тихо ()   7000 м  дымка{ливн. осадки}  4/0 средняя 
[Ac trans]
+1 +0.3 95 +1  1022.5  749  300    +7.9  0.0     
21 20.10.17 340 (С) 5000 м  дымка  10/10 540 м 
[St]
+0.9 +0.7 99 +2  1022.6  0.1  749  301           
00 21.10.17 тихо ()   3000 м  дымка  ясно 
-0.8 -1 99 -1  1022.4  -0.3  749  303           
03 21.10.17 020 (С) 0400 м  туман  ?/?  
-1.2 -1.3 99 -1  1022.1  -0.3  748  303  -1.8    0.0     
06 21.10.17 340 (С) 2200 м  слаб. снег{туман}  10/10 120 м 
[St]
-0.6 -0.6 100 1022.1  748  302  -1.8    0.0     
09 21.10.17 270 (З) 3900 м  дымка{снег}  10/10 330 м 
[St]
+2.1 +1.9 99 +3  1021.8  -0.1  748  299           
12 21.10.17 040 (СВ) 12000 м  {ливн. осадки, снег}  9/8 500 м кучево-дожд., средняя 
[Cb calv|Ac trans]
+2 -0.3 85 +1  1020.7  -1.1  747  299           
15 21.10.17 тихо ()   9000 м  дымка  10/10 1260 м 
[Sc]
+1.1 -0.6 88 +1  1020.5  -0.2  747  300      0.0     
18 21.10.17 030 (СВ) 20000 м    10/10 1140 м 
[Sc]
+1.1 -2.7 76 +2  1020.7  0.2  747  300    +3.8  0.0     
21 21.10.17 020 (С) 19000 м    10/10 1380 м 
[Sc]
+0.3 -3.5 76 +1  1020.8  747  301           
00 22.10.17 тихо ()   7000 м  дымка  ясно 
-3.8 -4.3 96 -4  1021.3  0.1  747  306           
03 22.10.17 тихо ()   3800 м  дымка  ясно 
-5.1 -5.3 98 -5  1021.4  -0.1  747  307  -5.5         
06 22.10.17 310 (СЗ) 5000 м  дымка  ясно 
-3.1 -3.5 97 -3  1021.5  0.4  748  305  -5.9         
09 22.10.17 310 (СЗ) 12000 м    ясно 
+1.8 -3.8 66 +1  1020.8  -0.3  747  300           
12 22.10.17 310 (СЗ) 12000 м    1/1 1500 м 
[Cu hum]
+3.4 -5.9 51 +3  1019.8  -0.9  747  298           
15 22.10.17 140 (ЮВ) 12000 м    ясно 
-2 -5.6 76 -1  1019.6  -0.6  746  304           
18 22.10.17 240 (ЮЗ) 18000 м    ясно 
-2.6 -6.3 76 -2  1019.3  -0.3  746  304    +3.5       
21 22.10.17 240 (ЮЗ) 20000 м    10/0 средняя 
[Ac und]
-0.8 -5.4 71 1018.9  -0.3  746  302           
00 23.10.17 270 (З) 21000 м    10/0 средняя 
[Ac und]
+0.1 -5.3 67 -1  1018.8  746  301           
03 23.10.17 300 (СЗ) 5000 м  слаб. снег  10/10 400 м 
[St]
-1.1 -2 94 -1  1019.3  0.4  746  302  -3.2    0.3     
06 23.10.17 300 (СЗ) 12000 м  в посл. час снег  9/9 330 м 
[St]
-0.2 -1.9 88 1020.3  1.1  747  301  -3.2    0.3  равномерный
сухой снег
100% 
09 23.10.17 030 (СВ) 12000 м  {снег}  9/9 800 м 
[Sc]
+1.7 -3.4 69 +1  1021.6  1.4  748  300           
12 23.10.17 020 (С) 12000 м  {снег}  5/5 600 м 
[Sc]
+2.6 -3.9 62 +2  1022.7  1.1  749  299           
Время (UTC), дата Ветер
(°,м/с) 
Видим.   Явления Облачность Т
(°С)
Тd
(°С)
f(%) Тe
(°С)
Pmin
(гПа)
dP
(гПа)
Po
(мм)
O2
(г/м3)
Тmin Tmax R s Состояние
почвы

Для получения пояснительной информации подведите курсор к названию столбца.

ПОГОДА в Гагарине - архив

Всё, что Вы хотите узнать о погоде в Гагарине - удобно и подробно!

Выберите нужную дату (начиная с 1 января 2015* года) и нажмите кнопку "Найти".
Будут отображены архивные сводки погоды по пункту Гагарин, начиная с указанной даты.


Отображать данные в формате CSV (для использования в таблицах Excel)


Внимание! Наш архив погоды предназначен исключительно для личного некоммерческого использования в познавательных целях. Если Вам необходимы официальные справки о состоянии погоды (для производственных, юридических, коммерческих и т.п. целей), обращайтесь в органы Росгидромета.

*Примечание: данная дата относится к архиву по метеостанциям СССР (Россия, СНГ, Балтия).
Архив по метеостанциям Зарубежной Европы и Азии (кроме Китая) хранится 10 дней, по другим регионам земного шара (Китай, Африка, Америка, Австралия, Океания) - 1 день.

Гагарин - район местоположения метеостанции


Название, широта, долгота, высота метеостанции:
Гагарин 55.5°ш. 35°д. 194 м над ур. моря [Российская Федерация]

Дополнительная информация

В oтличие oт бoльшинства пoгoдных сайтoв мы публикуем пoдрoбную метеoинфoрмацию в детальнoм прoфессиoнальнoм фoрмате.

Характеристики температуры и влажнoсти вoздуха измеряются на высoте 2 м в тени вдали oт зданий и деревьев.
Скoрoсть ветра измеряется на высoте 10 м (на урoвне рoста челoвека скoрoсть ветра ниже в 1.5-2 раза). Если метеoстанция нахoдится в гoрoде или в лесу, тo скoрoсть ветра занижена на 2-4 м/с пo сравнению с oткрытым местoм. Скoрoсть ветра над акватoриями крупных рек и oзёр, а также на вершинах хoлмoв на 2-5 м/с выше, чем в oбычных услoвиях.
Атмoсфернoе давление в разных тoчках местнoсти мoжет значительнo oтличаться oт давления на метеoстанции, в зависимoсти oт услoвий рельефа (при пoдъёме на 10 м давление пoнижается примернo на 1 мм рт.ст.).